Theta_e
329 329 329 329 328 328 328 328 328 328 328 328 328 328 328 328 328 328 328 329 329 329 329 329 329 329 329 329 329 330 330 330 329 329 328 329 328 328 328 327 327 326
329 329 329 328 328 328 328 328 328 328 328 328 328 327 328 328 328 328 328 329 329 329 330 329 329 329 329 330 330 330 330 330 329 328 328 328 328 328 328 328 327 327
329 329 329 329 329 328 328 328 328 328 328 328 328 328 328 328 328 329 329 329 329 329 329 329 329 329 329 330 330 330 330 329 327 326 326 327 327 328 327 327 327 327
328 329 329 329 329 329 329 329 329 329 329 329 329 328 328 328 328 328 328 328 328 328 328 328 328 329 329 330 330 329 328 326 325 324 324 325 327 327 327 328 327 327
328 329 329 329 329 330 329 330 329 329 329 329 329 329 328 328 328 328 328 328 328 328 328 328 328 328 329 329 329 328 326 326 325 324 324 325 326 326 326 328 327 326
328 328 329 329 329 329 329 329 329 329 329 329 329 328 328 327 327 328 327 327 327 327 327 328 328 328 328 328 328 327 326 326 325 325 324 325 325 326 326 326 326 325
324 324 325 326 327 327 328 328 328 328 328 328 327 327 327 327 326 326 326 326 326 326 327 327 327 327 327 327 326 324 324 324 324 325 325 324 324 324 325 326 325 324
319 321 323 324 325 326 326 327 327 326 326 326 326 326 326 326 326 326 326 326 326 326 326 326 326 327 327 327 325 325 325 324 324 325 324 324 323 323 324 324 324 324
319 321 322 324 324 325 325 325 325 325 325 325 325 325 325 325 325 325 326 326 326 326 326 326 327 327 327 326 326 326 325 324 323 324 324 324 324 324 324 323 322 323
319 321 322 322 323 323 323 323 323 323 323 323 324 324 324 324 324 325 325 325 325 325 325 325 324 324 324 324 325 325 324 322 322 323 324 324 324 324 324 323 322 322
317 319 320 320 321 321 321 322 321 322 321 321 321 322 322 322 322 322 322 322 323 323 323 323 322 321 321 322 323 323 323 322 322 322 322 322 322 322 322 322 322 322
315 317 318 318 319 319 319 319 319 319 319 318 318 318 319 319 319 320 320 320 320 320 320 320 320 319 319 320 321 321 321 321 320 320 320 319 319 320 319 319 320 320
315 316 316 316 316 316 315 315 315 314 314 313 313 313 314 315 315 316 316 316 317 317 318 318 319 319 319 319 319 319 319 318 318 318 318 317 317 317 317 317 317 317
313 313 313 313 313 312 312 311 310 310 309 308 309 309 309 310 311 312 313 313 314 315 316 317 317 318 318 318 318 318 318 317 316 316 316 316 316 315 315 315 316 315
311 312 311 311 310 310 309 308 307 306 306 306 306 306 306 307 307 309 310 311 312 313 313 314 315 316 316 316 317 316 316 315 314 314 314 314 314 313 313 313 314 314
311 311 309 308 307 306 305 304 305 305 306 307 307 307 308 308 308 308 308 309 310 311 312 312 313 314 314 315 315 314 313 313 312 312 312 312 312 312 312 312 312 313
310 308 306 304 303 303 303 304 305 306 307 308 308 309 310 310 310 310 310 310 310 310 311 311 311 312 313 314 314 314 313 313 312 311 310 310 310 310 311 311 311 310
307 305 303 302 302 303 304 305 306 306 307 308 308 310 310 309 311 311 312 312 312 311 312 312 312 313 313 314 313 313 313 312 312 311 309 308 308 308 308 308 308 308
303 302 301 301 302 304 304 306 306 306 307 308 308 309 310 310 311 311 312 313 313 312 312 312 312 312 312 312 312 311 311 311 310 309 308 307 307 306 306 306 306 306
301 301 301 301 303 304 305 306 306 306 307 308 308 308 309 310 310 310 311 312 312 312 312 311 311 311 310 310 309 308 308 307 307 307 307 307 306 305 305 304 305 305
301 301 301 302 303 304 305 305 306 306 306 307 306 307 307 308 309 309 310 310 311 311 311 311 311 310 310 310 308 307 305 305 304 304 304 304 304 304 304 303 303 303
301 301 301 302 303 304 304 305 306 306 306 306 306 306 306 307 307 308 308 309 309 309 309 309 310 310 310 309 308 306 305 304 303 302 302 302 302 302 302 301 301 301
301 301 301 302 303 303 303 304 305 305 305 306 307 306 306 307 307 307 307 307 307 307 307 307 307 308 307 307 306 305 305 304 303 302 301 301 301 301 300 299 299 299
301 301 301 302 302 303 303 303 304 305 305 306 306 306 306 307 307 307 306 306 305 304 304 304 305 305 304 304 304 304 303 303 302 301 301 301 301 300 299 299 299 298
301 300 301 301 302 302 302 303 304 305 305 306 305 304 305 305 306 305 305 305 304 303 302 302 303 303 303 303 303 302 302 301 300 300 300 300 299 299 298 298 298 298
301 300 300 301 301 301 301 302 304 304 304 305 304 304 304 304 304 304 304 303 303 303 302 301 301 301 301 301 301 301 300 300 299 299 299 298 297 296 296 296 296 296
Wind_Speed
39 37 36 36 35 35 34 33 33 32 32 32 33 33 33 33 32 31 32 33 32 33 34 34 34 34 34 34 34 35 35 35 35 36 36 36 36 36 37 36 37 36
37 36 36 35 36 36 35 35 34 34 34 34 34 33 33 32 31 31 32 32 32 32 31 31 32 33 33 34 34 34 34 33 33 35 35 35 34 35 37 38 37 36
35 35 35 36 37 36 36 35 35 34 34 34 33 33 32 31 31 31 31 31 31 30 30 30 31 31 32 33 33 32 30 29 30 32 33 33 34 37 38 37 36 36
33 35 35 36 36 35 34 33 33 33 33 32 32 31 30 29 29 29 29 29 30 29 29 29 30 31 32 32 32 31 31 31 31 32 34 35 36 36 37 37 37 37
33 33 33 33 32 31 31 30 30 30 30 30 29 27 27 26 26 26 27 28 28 28 28 28 29 30 31 31 32 31 32 33 31 28 30 34 35 34 35 38 38 36
29 29 28 28 27 27 27 27 27 26 26 27 26 25 24 24 24 24 24 24 25 26 27 28 28 28 28 29 30 29 29 31 30 27 27 30 33 34 35 36 34 32
25 25 24 24 24 24 24 24 23 23 23 23 23 22 22 21 22 22 22 22 23 24 24 25 26 26 26 26 27 28 27 26 27 29 30 30 30 31 33 34 33 32
22 21 21 21 21 21 22 21 21 21 21 21 20 20 20 20 20 20 20 20 20 21 23 24 26 26 26 26 27 28 27 26 26 28 31 31 29 29 31 33 33 32
19 19 19 20 20 20 20 20 20 20 20 20 19 19 18 18 18 18 18 18 18 19 22 24 25 25 24 24 25 24 24 26 28 29 30 30 30 30 31 31 31 31
19 19 20 20 20 20 20 20 20 20 20 20 19 19 19 18 18 17 17 17 17 18 19 20 20 20 20 20 22 23 24 26 27 27 29 29 30 31 32 32 32 32
20 20 21 21 21 21 21 21 21 21 21 21 20 20 20 19 19 18 18 18 19 19 20 20 19 19 19 19 21 23 25 26 25 26 28 28 29 31 32 32 32 32
21 21 21 21 21 21 21 21 21 22 22 21 21 21 21 20 19 19 20 20 20 21 21 21 20 20 19 19 20 21 22 23 23 24 25 25 26 29 30 31 31 31
21 21 21 21 21 21 21 21 21 21 21 20 20 19 19 19 19 19 19 20 20 19 19 18 18 18 17 16 17 18 19 18 18 20 22 22 24 26 27 28 29 29
21 21 21 21 21 21 20 19 18 17 17 18 18 17 17 17 17 17 17 16 17 16 16 15 15 15 15 15 15 16 17 16 16 17 19 20 21 24 25 25 26 27
21 21 21 20 20 19 17 14 12 10 9 10 11 11 11 12 12 13 14 15 15 15 15 14 14 13 14 14 14 14 13 14 14 15 16 18 20 21 22 23 24 25
21 20 18 16 15 14 12 10 9 7 6 5 5 5 5 6 7 8 10 10 11 12 14 14 14 13 13 12 12 11 11 11 12 13 14 16 18 19 21 22 23 24
19 17 15 13 12 12 10 9 9 8 8 8 7 6 6 7 7 8 9 9 9 9 11 13 13 13 12 12 11 10 11 11 12 12 13 15 16 18 19 21 22 23
18 16 15 14 13 12 11 11 10 10 10 9 9 9 9 9 9 9 9 10 10 10 11 12 11 11 12 13 12 12 12 12 12 12 13 14 15 17 18 20 21 22
18 16 16 15 14 13 13 12 12 12 11 11 11 11 10 10 10 10 9 9 10 10 11 11 10 9 10 10 11 11 11 11 10 10 11 13 15 16 18 19 20 21
19 18 17 16 15 15 14 14 14 13 13 13 12 13 12 12 11 11 10 8 8 8 8 8 7 6 6 6 7 7 8 8 9 9 10 12 14 15 16 18 19 20
21 20 19 17 17 17 16 16 15 15 15 14 13 13 13 13 12 11 11 10 8 8 8 8 7 6 5 5 5 5 5 6 7 8 10 11 13 14 15 17 18 18
23 22 21 20 19 19 18 18 18 17 16 15 14 13 13 12 12 11 11 10 9 9 9 9 8 7 6 5 3 3 3 4 6 7 9 11 12 13 15 16 17 17
25 24 23 22 22 21 21 21 19 18 17 16 16 16 15 13 12 11 10 9 9 9 8 8 7 7 6 5 3 2 2 3 4 6 8 10 11 12 14 15 16 17
27 26 25 25 25 24 23 22 21 20 19 18 17 17 16 14 13 12 11 10 9 8 7 6 6 5 5 4 3 3 3 3 4 6 7 9 10 11 13 14 15 16
28 27 26 27 27 26 25 24 23 21 20 19 18 16 15 15 13 12 11 9 8 7 6 5 5 4 4 4 4 4 4 4 5 6 8 9 10 11 12 13 14 14
29 28 27 28 28 26 25 24 23 22 21 20 18 16 15 14 12 11 9 8 7 6 6 5 4 3 4 4 4 4 4 5 6 7 8 9 10 11 12 13 13 14
Wind_Direction
233 233 234 236 238 240 242 243 245 246 248 249 251 253 256 258 261 262 261 259 257 255 255 255 255 254 254 254 253 253 254 254 254 254 253 249 247 245 245 247 245 241
234 235 236 238 241 242 243 245 247 249 251 254 256 258 260 262 263 263 263 261 259 258 257 256 256 255 255 254 252 250 251 253 254 254 250 247 250 250 248 246 244 243
236 237 239 241 243 244 245 247 249 251 253 256 258 259 261 262 263 262 261 261 260 259 259 258 257 257 255 253 252 251 254 261 265 263 256 253 254 252 248 245 244 247
238 240 241 243 244 246 247 249 249 251 253 255 257 258 259 260 261 260 260 260 260 260 262 261 259 257 255 253 253 255 258 261 263 262 258 255 253 249 247 248 247 248
241 241 242 244 245 247 248 248 250 251 252 254 256 257 258 259 259 259 260 260 260 261 262 261 259 257 256 255 254 255 258 258 259 261 258 253 251 250 249 247 245 245
239 240 242 243 245 245 246 247 249 251 252 254 256 257 258 259 259 260 260 261 262 262 260 258 256 255 255 255 253 253 257 258 258 262 262 255 252 251 248 245 243 242
237 239 240 241 242 242 243 245 247 248 250 253 254 255 256 256 258 260 261 262 261 260 259 258 256 256 255 255 257 259 263 265 263 261 262 259 255 252 248 246 245 242
234 235 235 236 236 237 239 240 242 244 246 248 249 250 251 252 255 257 258 258 257 257 258 258 257 255 250 250 254 257 259 266 269 265 263 262 258 255 253 249 246 244
226 226 226 228 229 231 234 235 237 238 239 241 242 243 246 247 250 251 252 251 251 254 256 254 252 251 249 251 253 254 260 269 272 269 269 266 260 260 260 256 250 248
219 220 221 224 226 229 231 233 235 235 236 238 238 240 243 245 246 246 247 247 248 253 258 257 258 261 265 267 262 261 268 275 275 273 271 269 265 266 266 260 254 250
217 220 222 225 227 229 232 234 237 238 238 239 239 241 243 245 248 249 249 251 251 254 258 260 264 268 271 273 270 268 270 273 275 275 272 270 270 269 265 259 255 252
218 221 223 226 228 231 234 236 238 240 240 241 242 243 245 246 249 251 251 252 253 254 257 259 263 267 269 272 272 273 274 275 276 276 275 274 271 267 261 254 253 254
220 223 225 227 230 231 233 235 237 240 240 240 240 241 243 243 245 248 250 252 253 255 258 260 262 266 270 274 275 277 282 283 281 280 279 278 272 266 260 255 254 256
221 223 224 226 228 229 232 235 237 239 238 236 238 239 241 242 241 243 246 248 250 253 257 263 267 270 274 278 278 279 283 286 287 285 282 279 275 268 263 260 260 260
220 223 225 228 230 229 231 233 231 230 230 231 234 236 238 239 239 242 245 248 252 255 259 265 268 268 269 272 274 276 280 283 284 283 281 279 275 271 266 263 262 261
220 225 225 224 222 218 217 215 208 203 201 204 207 209 214 218 225 234 240 244 249 252 254 256 259 262 264 265 266 271 275 275 276 277 276 276 273 270 268 266 263 261
219 219 212 206 201 196 194 190 187 188 191 195 196 196 200 206 215 223 225 227 233 241 246 245 246 250 256 259 259 261 264 266 270 272 270 269 269 267 267 266 263 260
213 206 198 195 189 184 184 185 186 188 188 192 194 196 201 204 212 221 223 223 226 232 239 242 242 242 244 250 254 255 256 256 258 263 265 266 266 265 265 264 261 258
205 198 194 190 183 182 186 186 189 192 190 191 195 196 201 204 207 214 218 218 220 224 232 238 240 241 241 245 251 252 254 255 255 258 264 265 265 264 263 262 260 259
201 196 193 188 182 184 189 188 191 194 193 194 196 196 199 203 206 212 215 216 215 216 224 230 229 234 240 248 257 260 260 263 262 261 263 265 267 269 267 265 264 263
199 196 192 187 185 188 191 191 193 194 194 196 197 196 199 202 203 209 210 211 213 214 217 220 219 224 236 248 260 264 262 263 263 263 265 267 270 271 270 269 268 266
198 195 191 188 188 190 192 192 193 195 195 196 196 195 196 196 196 201 204 206 211 213 210 205 201 203 208 213 231 255 272 277 276 275 274 274 277 278 278 276 274 273
198 195 191 189 191 193 193 193 193 194 194 194 195 194 193 192 192 193 194 195 202 210 209 197 186 182 183 179 183 228 279 295 293 290 287 287 289 288 285 283 282 282
199 197 192 190 192 194 193 192 192 193 194 193 196 197 193 190 191 191 188 186 192 205 209 198 187 182 183 184 194 224 255 271 275 279 281 284 287 286 285 286 286 288
199 198 195 192 193 194 193 191 191 192 193 193 195 196 192 189 191 194 191 186 192 209 220 218 214 213 214 214 217 228 243 251 254 263 269 274 276 277 280 283 284 285
199 199 198 195 194 193 191 190 190 189 191 193 193 192 189 190 195 197 192 190 198 212 228 237 240 241 240 242 243 246 254 255 254 259 265 268 270 271 274 277 278 280